Powrót do katalogu

COSMOS 2251 DEB

AktywnyLEO
NORAD 35888·DEBRIS·🇷🇺 Russia

Wystrzelony Jun 16, 1993 z Plesetsk Cosmodrome

Loading…

Następne Przeloty (najbliższe 24 godziny)

TLE

ŚwieżeSource: Space-Track

Epoka: Sep 14, 2026, 04:13 UTC

1 35888U 93036AUB 26257.17605453  .00000939  00000-0  20209-3 0  9993
2 35888  74.0326 191.9332 0050887 253.6863 105.8702 14.59196737902900

Śledź COSMOS 2251 DEB w czasie rzeczywistym z AllMySat

Download on the App Store